Find Starlink 34817

NORAD ID: 65362 Int'l Des: 2025-190 Owner: SPXS Country: US Constellation: starlink operational
LEOCIRCULAR

当前视图

正在加载3D地球...

About Starlink 34817

Starlink 34817 (NORAD 65362) is a starlink constellation satellite (v2 mini) launched Aug 28, 2025 by SPXS of US. It operates in LEO, CIRCULAR orbit with a mass of 575.00 kg.

关于 Starlink 34817

正在加载描述...

即将过境

Passes for default location (London). Set your location on the main map for personalized predictions.

高度历史

Loading altitude history...

两行轨道根数

1 65362U 25190M 26194.56473532 .00018956 00000-0 57059-3 0 9994
2 65362 53.1591 301.6295 0001146 86.4792 273.6342 15.34408478 49051
Epoch: Jul 13, 2026 • Age: 21 hours

当前状态

高度 468.7 km
远地点 / 近地点 N/A
速度 7.63 km/s
星下点 -20.72°S, 40°E
发射日期 Aug 28, 2025
运行时间 0.8 years
类型 internet

技术详情

分类 Payload
质量 575.00 kg
干质量 530.00 kg
总质量 575.00 kg
长度 0.30 m
直径 4.10 m
跨度 29.00 m
形状 Box + pan
制造商 SPXS
平台类型 Starlink V2MO
阶段状态 In Orbit
所有者/国家 SPXS/US

Most Searched